Date,TemperatureHighF,TemperatureAvgF,TemperatureLowF,DewpointHighF,DewpointAvgF,DewpointLowF,HumidityHigh,HumidityAvg,HumidityLow,PressureMaxIn,PressureMinIn,WindSpeedMaxMPH,WindSpeedAvgMPH,GustSpeedMaxMPH,PrecipitationSumIn
2013-1-1,45,41,37,44,39,32,100,93,80,30.03,29.81,11,3,15,0.02
2013-1-2,44,37,28,34,30,24,90,76,53,30.09,30.00,9,3,13,0.01
2013-1-3,55,37,24,33,24,18,100,68,23,30.24,30.08,6,2,11,0.00
2013-1-4,55,41,29,37,25,14,94,59,20,30.31,30.15,3,1,8,0.00
2013-1-5,53,44,33,37,33,29,89,68,48,30.16,30.00,5,1,12,0.00
2013-1-6,62,40,28,35,22,3,100,61,10,30.14,30.05,10,2,15,0.00
2013-1-7,57,38,23,30,20,10,88,55,16,30.18,29.94,8,2,14,0.00
2013-1-8,50,43,36,46,33,24,94,68,55,29.95,29.81,5,2,11,0.06
2013-2-27,42,42,41,20,20,20,43,42,41,29.92,29.91,0,0,4,0.00
2013-2-28,58,45,32,25,18,4,69,39,11,30.00,29.88,12,2,21,0.00
2013-3-1,55,43,31,26,16,-1,76,41,10,30.03,29.91,14,2,21,0.00
2013-3-2,54,40,30,17,7,-7,55,29,10,30.16,30.01,12,2,20,0.00
2013-3-3,68,46,25,25,14,0,76,36,10,30.03,29.63,8,1,15,0.00
2013-3-4,81,62,48,45,33,19,66,38,10,29.63,29.37,12,2,21,0.01
2013-3-5,59,51,38,43,15,-2,62,29,10,30.09,29.49,16,5,26,0.06
2013-3-6,67,48,32,22,10,-4,49,27,10,30.20,30.00,6,0,11,0.02
2013-3-7,68,52,38,26,17,6,59,30,10,30.11,29.93,8,0,16,0.00
2013-3-8,65,55,43,28,24,17,55,32,16,30.06,29.84,8,1,15,0.00
2013-3-9,68,62,56,56,45,27,70,54,28,29.84,29.51,10,3,23,0.01
2013-3-10,62,53,43,57,42,22,100,70,35,29.80,29.47,16,6,25,0.92
2013-3-11,58,44,33,23,16,-1,66,38,10,29.85,29.75,14,5,23,0.02
2013-3-12,73,50,29,34,19,5,84,41,10,30.08,29.84,5,0,8,0.00
2013-3-13,48,44,40,32,31,30,66,59,51,30.13,30.07,0,0,2,0.00
2013-3-18,66,56,48,36,33,27,59,43,23,29.80,29.69,0,0,2,0.05
2013-3-19,68,52,37,39,24,6,84,44,10,29.94,29.78,7,0,16,0.02
2013-3-20,70,55,36,28,16,3,57,25,10,30.09,29.85,6,0,17,0.00
2013-3-21,49,44,41,34,24,4,77,48,17,29.85,29.52,11,2,20,0.07
2013-3-22,48,44,40,46,41,35,95,90,78,29.64,29.50,6,0,17,0.11
2013-3-23,50,47,44,49,46,41,100,94,86,29.66,29.46,0,0,15,0.18
2013-3-24,50,44,38,49,27,15,100,56,24,29.91,29.48,18,8,33,0.53
2013-3-25,53,41,30,19,8,-7,57,30,10,30.15,29.91,15,4,24,0.05
2013-3-26,36,33,30,16,13,11,51,43,37,30.17,30.15,0,0,1,0.05
2013-3-27,69,63,53,17,9,2,24,12,10,30.06,29.92,8,2,16,0.00
2013-3-28,76,60,44,45,33,17,51,36,23,30.06,29.89,7,1,13,0.00
2013-3-29,74,66,60,59,51,45,91,60,44,29.96,29.84,8,1,14,0.02
2013-3-30,71,62,58,64,58,-100,100,90,65,29.87,29.68,7,0,18,0.52
2013-3-31,82,65,54,64,54,36,99,74,21,29.74,29.62,8,0,23,1.09
2013-4-1,84,64,44,57,40,22,99,55,10,29.86,29.73,6,0,11,0.02
2013-4-2,61,55,44,49,41,31,92,60,36,29.91,29.79,11,2,21,0.46
2013-4-3,54,47,43,42,31,20,92,56,30,29.93,29.83,10,2,21,0.46
2013-4-4,55,45,41,42,38,28,92,77,49,29.93,29.85,4,0,9,0.50
2013-4-5,78,56,36,48,31,12,99,55,10,29.99,29.82,4,0,9,0.01
2013-4-6,81,64,47,48,38,27,81,44,14,29.83,29.61,11,2,19,0.01
2013-4-7,75,66,57,55,52,46,76,63,45,29.73,29.57,8,1,15,0.00
2013-4-8,80,71,62,61,55,53,84,58,39,29.60,29.49,9,2,15,0.00
2013-4-9,88,76,68,63,56,47,75,52,24,29.57,29.46,12,4,21,0.01
2013-4-10,77,76,75,64,63,62,67,65,61,29.54,29.49,8,6,17,0.01
2013-4-14,70,70,69,51,51,50,52,51,49,29.44,29.42,0,0,2,0.00
2013-4-15,90,75,63,63,58,52,85,59,29,29.57,29.44,8,1,15,0.00
2013-4-16,92,79,67,67,61,54,82,58,29,29.71,29.55,8,2,16,0.00
2013-4-17,89,80,74,70,64,55,88,60,32,29.70,29.46,13,4,21,0.02
2013-4-18,78,60,46,65,48,24,92,64,35,29.84,29.34,17,6,24,1.02
2013-4-19,65,50,38,30,17,0,64,33,10,29.97,29.84,11,4,19,0.07
2013-4-20,75,56,34,39,25,12,84,43,10,30.00,29.84,10,2,15,0.00
2013-4-21,77,60,43,46,31,14,81,41,10,30.03,29.87,8,1,17,0.00
2013-4-22,81,64,44,46,35,21,79,43,11,29.94,29.67,8,1,19,0.00
2013-4-23,79,62,47,57,47,35,72,58,42,29.84,29.65,15,3,21,0.00
2013-4-24,46,44,41,36,35,33,80,71,63,29.91,29.84,5,2,14,0.09
2013-4-26,71,60,54,53,45,34,79,59,42,30.01,29.83,8,1,16,0.06
2013-4-27,80,65,55,66,55,48,100,73,55,29.85,29.75,15,2,22,0.01
2013-4-28,90,68,49,53,46,28,95,56,11,29.80,29.64,6,0,8,0.01
2013-4-29,92,72,53,60,49,31,97,54,12,29.70,29.57,5,0,14,0.00
2013-4-30,90,73,53,62,51,43,92,53,21,29.63,29.54,6,1,12,0.00
2013-5-1,83,71,63,63,58,54,93,65,39,29.78,29.61,11,2,22,0.00
2013-5-2,72,60,44,60,49,33,88,67,35,29.96,29.75,11,3,20,0.05
2013-5-3,67,51,39,35,22,3,79,43,10,29.96,29.75,11,3,25,0.34
2013-5-4,60,49,36,35,26,1,80,48,10,29.77,29.66,15,3,23,0.04
2013-5-5,70,56,41,41,33,21,84,48,16,29.87,29.76,11,2,17,0.04
2013-5-6,85,64,47,46,38,25,86,48,11,29.83,29.71,8,1,14,0.00
2013-5-7,90,68,49,58,41,24,88,49,10,29.85,29.72,7,0,8,0.00
2013-5-8,89,71,52,54,48,37,90,51,17,29.80,29.67,6,0,14,0.00
2013-5-9,72,68,63,66,60,53,100,79,52,29.80,29.67,2,0,8,0.19
2013-5-10,84,70,61,70,59,-100,100,76,37,29.78,29.65,7,0,16,0.12
2013-5-11,86,71,58,56,43,-100,88,47,10,29.91,29.77,5,0,9,0.01
2013-5-12,84,67,46,48,31,16,77,35,10,30.03,29.90,2,0,7,0.00
2013-5-13,90,69,48,52,36,19,88,43,10,30.01,29.86,6,0,16,0.00
2013-5-14,93,68,50,53,45,26,86,53,10,29.92,29.77,3,0,11,0.00
2013-5-15,82,69,60,66,56,45,100,65,43,29.83,29.65,4,0,15,0.80
2013-5-16,64,64,64,64,64,64,100,99,99,29.70,29.57,4,2,11,1.18
2013-5-26,86,79,73,67,60,51,78,53,31,29.83,29.76,6,0,14,0.01
2013-5-27,89,79,71,71,65,59,99,66,37,29.79,29.60,8,1,19,0.00
2013-5-28,91,80,70,67,62,56,84,58,33,29.70,29.59,5,1,17,0.00
2013-5-29,88,79,69,68,64,61,88,61,42,29.68,29.53,6,1,15,0.00
2013-5-30,88,78,74,75,69,63,85,73,55,29.62,29.47,5,1,15,0.21
2013-5-31,96,85,78,72,68,64,78,60,36,29.64,29.44,5,1,15,0.04
2013-6-1,81,76,69,73,68,-100,97,82,69,29.70,29.52,6,0,15,0.39
2013-6-2,89,74,61,70,56,44,100,61,21,29.79,29.69,8,0,12,0.01
2013-6-3,91,74,58,63,56,50,96,59,25,29.78,29.63,1,0,6,0.01
2013-6-4,89,74,63,65,61,58,89,65,40,29.83,29.62,0,0,7,0.00
2013-6-5,97,79,67,70,64,59,89,65,30,29.76,29.56,7,0,11,0.00
2013-6-6,74,71,70,72,68,65,100,91,80,29.66,29.57,12,1,23,0.02
2013-6-7,87,73,64,58,55,44,80,57,22,29.69,29.64,0,0,0,0.00
2013-6-8,91,73,58,69,55,42,100,62,19,29.72,29.60,2,0,9,0.00
2013-6-9,96,76,65,69,63,57,97,69,27,29.69,29.61,4,0,12,0.06
2013-6-10,100,81,65,75,66,49,100,67,19,29.73,29.66,11,1,13,0.01
2013-6-11,99,83,67,76,68,61,100,67,30,29.80,29.70,3,0,12,0.00
2013-6-12,97,83,71,73,68,64,95,65,34,29.83,29.70,4,1,13,0.00
2013-6-13,103,86,73,74,70,63,95,66,30,29.75,29.65,4,0,12,0.00
2013-6-14,98,84,75,76,71,65,100,67,34,29.77,29.66,4,0,10,0.00
2013-6-15,91,79,72,74,69,59,92,73,35,29.80,29.68,2,0,8,0.13
2013-6-16,98,83,73,73,71,65,97,71,39,29.79,29.64,4,0,14,0.15
2013-6-18,89,83,70,65,63,62,79,52,41,29.75,29.67,3,0,5,0.00
2013-6-19,94,78,64,71,65,61,100,68,36,29.80,29.70,4,0,8,0.00
2013-6-20,96,80,71,73,70,65,100,75,38,29.84,29.75,4,0,8,0.00
2013-7-17,96,86,78,69,65,61,73,53,32,30.01,29.90,8,1,13,0.00
2013-7-18,98,77,71,74,68,59,100,77,29,29.94,29.76,5,0,15,0.00
2013-7-19,94,79,72,70,67,64,89,70,38,29.83,29.71,7,0,13,0.00
2013-7-20,98,77,71,74,68,-100,100,81,30,29.75,29.61,5,0,13,0.53
2013-7-21,97,81,72,76,71,65,100,75,36,29.71,29.62,4,0,15,0.01
2013-7-22,100,84,74,76,70,65,95,66,32,29.72,29.62,6,0,10,0.01
2013-7-23,101,84,73,74,70,67,96,65,35,29.73,29.58,6,1,15,1.81
2013-7-24,93,77,70,74,69,61,100,80,35,29.78,29.62,4,0,9,2.30
2013-7-25,93,79,69,74,69,64,100,74,39,29.83,29.73,0,0,2,0.01
2013-7-26,77,74,71,74,72,68,100,93,83,29.80,29.63,1,0,10,3.45
2013-7-27,92,75,70,75,68,60,99,84,35,29.76,29.68,0,0,5,1.25
2013-7-28,94,78,68,74,67,60,100,75,34,29.77,29.70,3,0,7,0.00
2013-7-29,95,82,73,72,69,66,88,68,40,29.81,29.72,4,0,11,0.00
2013-7-30,97,84,76,74,70,65,86,64,37,29.84,29.73,2,0,8,0.00
2013-7-31,100,82,75,79,73,62,100,76,33,29.82,29.68,4,0,11,0.00
2013-8-1,98,84,77,79,74,66,100,77,37,29.79,29.69,0,0,4,0.00
2013-8-2,103,84,74,76,72,67,97,72,33,29.74,29.63,3,0,8,0.00
2013-8-3,96,84,75,77,72,66,97,69,39,29.81,29.68,3,0,7,0.00
2013-8-4,97,82,76,79,74,69,100,81,40,29.85,29.77,0,0,4,0.00
2013-8-5,105,86,76,79,72,63,100,69,26,29.76,29.60,5,0,9,0.00
2013-8-6,99,81,73,78,72,65,100,78,33,29.67,29.56,0,0,8,0.00
2013-8-7,101,84,73,74,70,64,97,66,31,29.67,29.55,2,0,10,0.00
2013-8-8,99,85,75,75,70,63,94,65,33,29.66,29.53,2,0,7,0.00
2013-8-9,99,84,75,73,66,60,75,57,30,29.73,29.63,4,0,8,0.00
2013-8-10,99,83,74,77,70,65,96,69,33,29.80,29.69,1,0,6,0.00
2013-8-11,100,82,74,75,70,66,97,71,33,29.84,29.72,5,0,11,0.32
2013-8-12,96,79,73,78,72,65,100,83,37,29.80,29.68,8,0,16,1.23
2013-8-13,93,78,72,74,68,-100,99,76,41,29.81,29.68,0,0,8,0.77
2013-8-14,88,77,69,73,64,-100,97,73,37,29.83,29.72,6,0,16,0.01
2013-8-15,82,59,65,63,36,-100,83,62,23,29.84,29.74,0,0,4,0.00
2013-8-16,84,68,63,60,53,-100,84,63,35,29.84,29.76,0,0,4,0.00
2013-8-17,86,64,59,63,56,-100,93,79,38,29.86,29.76,0,0,1,0.00
2013-8-18,87,71,63,67,62,57,99,76,36,29.87,29.77,0,0,8,0.00
2013-8-19,96,69,65,67,50,-100,97,72,19,29.88,29.73,0,0,3,0.00
2013-8-20,91,72,65,71,61,-100,97,74,31,29.83,29.73,0,0,6,0.00
2013-8-21,96,76,67,71,64,56,96,71,28,29.87,29.76,0,0,4,0.00
2013-8-22,98,80,70,69,66,61,87,64,31,29.85,29.71,0,0,3,0.00
2013-8-23,100,80,71,74,67,60,94,66,28,29.81,29.69,0,0,1,0.00
2013-8-24,95,78,73,72,65,-100,89,66,34,29.86,29.77,0,0,8,0.00
2013-8-25,96,81,73,72,66,59,88,64,29,29.94,29.83,0,0,2,0.00
2013-8-26,90,77,71,71,66,65,89,71,44,29.97,29.91,0,0,6,0.00
2013-8-27,94,88,85,68,65,62,57,47,35,29.53,29.48,2,1,5,0.00
2013-8-28,90,81,77,71,69,63,80,68,41,29.39,29.36,0,0,0,0.00
2013-8-29,96,78,71,70,67,59,89,70,29,29.46,29.32,0,0,1,0.00
2013-8-30,96,79,70,74,67,59,96,70,30,29.41,29.24,0,0,4,0.00
2013-8-31,97,78,71,72,65,-100,90,69,29,29.31,29.18,0,0,2,0.00
2013-9-1,97,80,71,74,68,58,97,72,28,29.27,29.15,0,0,13,0.00
2013-9-2,96,80,72,76,70,64,100,75,36,29.36,29.22,12,0,27,1.00
2013-9-3,96,80,72,76,69,60,100,74,31,29.38,29.27,0,0,2,0.04
2013-9-4,87,76,71,66,60,54,69,58,33,29.48,29.36,0,0,2,0.00
2013-9-5,84,71,65,60,56,54,73,61,37,29.52,29.42,4,0,7,0.00
2013-9-6,88,72,65,63,58,55,80,64,36,29.49,29.34,0,0,1,0.00
2013-9-7,92,73,67,67,60,-100,81,67,35,29.43,29.30,1,0,4,0.00
2013-9-8,90,73,68,72,66,57,97,79,33,29.38,29.26,0,0,0,0.00
2013-9-9,92,74,67,69,64,54,97,76,34,29.40,29.30,0,0,2,0.00
2013-9-10,91,73,65,69,64,57,92,76,32,29.49,29.36,0,0,1,0.00
2013-9-11,80,72,69,72,68,66,93,85,65,29.50,29.45,1,0,3,0.00
2013-9-17,92,82,77,64,61,57,63,50,31,29.87,29.73,0,0,6,0.00
2013-9-18,78,74,73,66,64,63,79,71,62,29.77,29.71,0,0,0,0.01
2013-9-19,94,78,70,71,66,58,88,69,34,29.78,29.62,4,0,13,0.07
2013-9-20,76,73,71,76,71,67,100,94,79,29.72,29.58,2,0,8,1.63
2013-9-21,71,62,58,68,52,-100,94,74,45,29.69,29.62,0,0,2,0.33
2013-9-22,76,58,51,54,51,46,96,78,36,29.72,29.59,0,0,2,0.01
2013-9-23,78,60,53,57,52,49,97,75,36,29.66,29.57,0,0,2,0.00
2013-9-24,82,64,59,60,54,44,91,74,37,29.65,29.60,3,0,9,0.00
2013-9-25,82,64,57,59,53,47,86,70,34,29.65,29.53,0,0,5,0.00
2013-9-26,84,67,59,63,57,53,97,74,37,29.70,29.59,0,0,2,0.00
2013-9-27,83,69,61,62,59,55,93,71,42,29.76,29.65,0,0,2,0.00
2013-9-28,88,74,70,72,63,-100,100,72,44,29.77,29.67,11,0,17,1.12
2013-9-29,89,73,68,72,68,57,99,87,35,29.77,29.64,1,0,6,1.02
2013-9-30,87,72,65,73,66,62,100,84,44,29.66,29.58,1,0,4,0.01
2013-10-1,85,78,74,71,69,65,88,76,52,29.72,29.66,0,0,0,0.00
2013-10-2,88,77,72,74,68,60,100,78,40,29.79,29.67,1,0,8,0.00
2013-10-3,90,77,70,76,68,64,100,77,42,29.73,29.62,2,0,8,0.02
2013-10-4,90,75,70,74,68,60,100,83,37,29.70,29.63,2,0,8,0.01
2013-10-5,87,75,54,76,68,48,100,80,50,29.82,29.66,11,2,17,0.22
2013-10-6,69,54,49,50,47,39,96,78,33,29.82,29.74,4,1,10,0.24
2013-10-7,71,52,48,48,45,40,92,78,32,29.89,29.80,2,0,4,0.01
2013-10-8,69,52,47,49,46,43,92,78,41,29.91,29.80,0,0,2,0.00
2013-10-9,75,55,46,56,48,44,93,78,38,29.88,29.78,0,0,1,0.00
2013-10-10,77,58,49,56,51,46,97,79,43,29.88,29.70,0,0,1,0.00
2013-10-11,63,62,60,55,54,53,83,77,72,29.70,29.69,0,0,1,0.00
2013-10-13,69,68,67,65,64,63,89,86,82,29.96,29.93,0,0,0,0.01
2013-10-14,69,67,63,68,60,49,100,80,58,29.93,29.74,0,0,2,0.17
2013-10-15,78,69,63,74,69,63,99,98,80,29.77,29.66,5,0,9,1.05
2013-10-16,63,58,55,63,58,55,100,98,91,29.83,29.72,4,0,7,0.66
2013-10-17,67,54,48,57,50,41,99,89,39,29.86,29.74,3,0,8,0.07
2013-10-18,72,56,45,57,49,44,99,80,41,29.82,29.69,2,0,7,0.01
2013-10-19,62,50,44,58,39,-100,91,69,29,29.91,29.76,7,1,16,0.01
2013-10-20,58,45,36,44,38,33,92,78,51,29.86,29.69,0,0,0,0.00
2013-10-21,69,56,47,56,49,42,94,80,46,29.83,29.72,1,0,6,0.14
2013-10-22,63,50,42,53,47,41,100,89,44,29.88,29.74,0,0,2,0.15
2013-10-23,71,50,44,49,45,42,95,81,45,29.91,29.80,0,0,0,0.00
2013-10-24,55,50,46,52,44,36,95,81,50,30.08,29.80,0,0,0,0.00
2013-10-25,51,47,44,38,33,26,69,59,42,30.24,30.06,0,0,2,0.00
2013-10-26,55,48,42,55,42,-100,100,81,62,30.06,29.84,0,0,2,3.24
2013-10-27,73,60,55,63,55,49,100,86,44,29.87,29.77,4,0,8,2.17
2013-10-28,76,63,54,61,54,-100,100,78,45,29.91,29.80,2,0,5,0.01
2013-10-29,81,70,64,66,62,58,94,76,49,29.89,29.78,8,0,14,0.00
2013-10-30,74,68,64,70,63,53,100,83,51,29.82,29.61,5,1,17,0.18
2013-10-31,80,64,51,73,60,41,100,88,44,29.61,29.40,6,0,11,0.30
2013-11-1,66,50,42,51,43,38,92,80,36,29.71,29.60,2,0,3,0.20
2013-11-2,57,47,41,41,35,-100,80,67,47,30.00,29.78,3,0,8,0.00
2013-11-3,60,44,34,42,34,30,90,70,39,30.03,29.82,0,0,5,0.00
2013-11-4,56,54,51,56,48,39,100,79,59,29.93,29.82,0,0,2,0.21
2013-11-5,67,62,56,67,61,56,99,96,74,29.91,29.73,7,0,9,1.35
2013-11-6,69,68,66,69,68,66,99,99,99,29.74,29.71,4,1,8,1.61
2013-11-8,54,53,52,42,39,37,67,60,53,29.94,29.91,0,0,0,0.00
2013-11-9,59,54,52,49,45,-100,82,74,63,30.03,29.91,3,0,8,0.01
2013-11-10,70,55,50,54,49,45,91,79,41,30.11,30.03,1,0,4,0.01
2013-11-11,68,49,43,47,44,41,92,83,42,30.06,29.97,0,0,3,0.00
2013-11-12,58,53,49,53,44,17,90,72,47,30.44,30.02,3,0,13,0.00
2013-11-13,30,28,26,19,18,16,69,65,57,30.46,30.44,0,0,0,0.00
2013-11-15,56,52,46,56,50,43,100,93,87,29.83,29.67,0,0,2,0.27
2013-11-16,74,64,56,68,59,-100,99,88,62,29.69,29.48,5,1,15,0.01
2013-11-17,82,72,58,67,60,34,79,66,37,29.77,29.44,15,3,21,0.00
2013-11-18,53,49,45,33,29,21,57,47,33,29.98,29.85,0,0,0,0.00